JST522 YMML-YSSY

Flight info

Callsign JST522
Flight time 0h 59m
Altitude 37000
Route DOSEL Y59 RIVET
Aircraft A320/M-SDE3FGHIRWY/LB1

Departure

Time 2026-05-07 18:20
Airport Melbourne Airport (YMML)

Arrival

Time 2026-05-07 19:20
Airport Sydney Kingsford Smith International Airport (YSSY)
Time Latitude Longitude Altitude Speed Heading
2026-05-07 17:45 -37.67525 144.84742 380 ft 0 kts 171°
2026-05-07 18:09 -37.67515 144.84740 380 ft 4 kts 171°
2026-05-07 18:10 -37.67493 144.84736 380 ft 2 kts 171°
2026-05-07 18:10 -37.67467 144.84731 381 ft 4 kts 176°
2026-05-07 18:10 -37.67442 144.84734 381 ft 4 kts 214°
2026-05-07 18:10 -37.67433 144.84756 382 ft 4 kts 261°
2026-05-07 18:11 -37.67431 144.84768 382 ft 0 kts 261°
2026-05-07 18:15 -37.67434 144.84746 382 ft 5 kts 261°
2026-05-07 18:15 -37.67442 144.84682 381 ft 10 kts 261°
2026-05-07 18:15 -37.67453 144.84562 380 ft 16 kts 264°
2026-05-07 18:16 -37.67471 144.84410 377 ft 17 kts 260°
2026-05-07 18:16 -37.67492 144.84265 374 ft 17 kts 260°
2026-05-07 18:16 -37.67531 144.84128 370 ft 17 kts 210°
2026-05-07 18:16 -37.67662 144.84143 366 ft 21 kts 172°
2026-05-07 18:17 -37.67804 144.84172 362 ft 18 kts 171°
2026-05-07 18:17 -37.67878 144.84105 358 ft 3 kts 268°
2026-05-07 18:17 -37.67878 144.84101 358 ft 2 kts 268°
2026-05-07 18:17 -37.67878 144.84097 357 ft 0 kts 268°
2026-05-07 18:18 -37.67879 144.84077 357 ft 5 kts 268°
2026-05-07 18:18 -37.67880 144.84025 356 ft 6 kts 267°
2026-05-07 18:19 -37.67869 144.83962 362 ft 9 kts 321°
2026-05-07 18:19 -37.67845 144.83956 358 ft 0 kts 352°
2026-05-07 18:19 -37.67696 144.83928 361 ft 58 kts 351°
2026-05-07 18:19 -37.67076 144.83811 384 ft 121 kts 352°
2026-05-07 18:20 -37.66090 144.83591 529 ft 156 kts 346°
2026-05-07 18:20 -37.65061 144.83393 1205 ft 150 kts 346°
2026-05-07 18:20 -37.64017 144.83195 1781 ft 153 kts 340°
2026-05-07 18:20 -37.62978 144.83003 2355 ft 149 kts 337°
2026-05-07 18:21 -37.61893 144.82789 2598 ft 169 kts 336°
2026-05-07 18:21 -37.60646 144.82525 2796 ft 197 kts 338°
2026-05-07 18:21 -37.59170 144.82420 3109 ft 233 kts
2026-05-07 18:21 -37.57536 144.83149 3536 ft 265 kts 22°
2026-05-07 18:22 -37.55808 144.84227 4041 ft 289 kts 23°
2026-05-07 18:22 -37.54594 144.84981 4546 ft 299 kts 23°
2026-05-07 18:22 -37.52058 144.86550 5773 ft 308 kts 24°
2026-05-07 18:22 -37.50114 144.87742 6719 ft 313 kts 24°
2026-05-07 18:23 -37.48130 144.88947 7587 ft 320 kts 24°
2026-05-07 18:23 -37.46103 144.90173 8482 ft 326 kts 24°
2026-05-07 18:23 -37.44136 144.91641 9352 ft 333 kts 39°
2026-05-07 18:23 -37.42496 144.93712 10178 ft 337 kts 56°
2026-05-07 18:24 -37.41085 144.96185 10519 ft 360 kts 58°
2026-05-07 18:24 -37.39605 144.98838 10837 ft 380 kts 58°
2026-05-07 18:24 -37.38070 145.01591 11503 ft 388 kts 58°
2026-05-07 18:24 -37.36500 145.04392 12181 ft 395 kts 57°
2026-05-07 18:25 -37.34899 145.07221 12887 ft 400 kts 57°
2026-05-07 18:25 -37.33271 145.10084 13585 ft 405 kts 57°
2026-05-07 18:25 -37.31624 145.12980 14283 ft 409 kts 57°
2026-05-07 18:25 -37.29960 145.15906 14927 ft 414 kts 57°
2026-05-07 18:26 -37.28282 145.18859 15566 ft 417 kts 57°
2026-05-07 18:26 -37.26589 145.21837 16199 ft 421 kts 57°
2026-05-07 18:26 -37.24881 145.24840 16825 ft 425 kts 57°
2026-05-07 18:26 -37.23156 145.27878 17491 ft 429 kts 57°
2026-05-07 18:27 -37.21415 145.30942 18106 ft 434 kts 57°
2026-05-07 18:27 -37.19652 145.34037 18719 ft 438 kts 57°
2026-05-07 18:27 -37.17868 145.37164 19299 ft 442 kts 57°
2026-05-07 18:27 -37.16681 145.39243 19714 ft 444 kts 57°
2026-05-07 18:28 -37.14260 145.43476 20548 ft 448 kts 57°
2026-05-07 18:28 -37.12435 145.46659 21167 ft 452 kts 57°
2026-05-07 18:28 -37.10595 145.49864 21771 ft 455 kts 57°
2026-05-07 18:28 -37.08742 145.53088 22386 ft 458 kts 57°
2026-05-07 18:29 -37.06897 145.56296 22953 ft 461 kts 57°
2026-05-07 18:29 -37.04991 145.59607 23513 ft 464 kts 57°
2026-05-07 18:29 -37.03123 145.62851 24030 ft 467 kts 57°
2026-05-07 18:29 -37.01220 145.66147 24473 ft 470 kts 57°
2026-05-07 18:30 -36.99300 145.69471 24925 ft 472 kts 57°
2026-05-07 18:30 -36.97370 145.72808 25380 ft 474 kts 57°
2026-05-07 18:30 -36.95431 145.76157 25828 ft 477 kts 57°
2026-05-07 18:30 -36.93481 145.79529 26303 ft 479 kts 57°
2026-05-07 18:31 -36.91523 145.82917 26710 ft 482 kts 58°
2026-05-07 18:31 -36.89550 145.86324 27123 ft 485 kts 57°
2026-05-07 18:31 -36.88236 145.88592 27386 ft 486 kts 57°
2026-05-07 18:31 -36.86244 145.92024 27802 ft 489 kts 57°
2026-05-07 18:32 -36.84243 145.95464 28209 ft 491 kts 57°
2026-05-07 18:32 -36.82231 145.98918 28628 ft 493 kts 57°
2026-05-07 18:32 -36.80207 146.02392 29023 ft 495 kts 57°
2026-05-07 18:32 -36.78179 146.05871 29447 ft 498 kts 57°
2026-05-07 18:33 -36.76130 146.09385 29787 ft 502 kts 57°
2026-05-07 18:33 -36.74067 146.12917 30127 ft 504 kts 57°
2026-05-07 18:33 -36.71998 146.16455 30476 ft 507 kts 57°
2026-05-07 18:33 -36.69914 146.20013 30795 ft 508 kts 57°
2026-05-07 18:34 -36.67823 146.23581 31123 ft 510 kts 57°
2026-05-07 18:34 -36.65731 146.27146 31529 ft 509 kts 57°
2026-05-07 18:34 -36.63643 146.30694 32002 ft 507 kts 57°
2026-05-07 18:34 -36.61560 146.34227 32468 ft 506 kts 57°
2026-05-07 18:35 -36.59479 146.37758 32887 ft 506 kts 57°
2026-05-07 18:35 -36.57394 146.41293 33340 ft 504 kts 57°
2026-05-07 18:35 -36.55323 146.44801 33808 ft 503 kts 57°
2026-05-07 18:35 -36.53253 146.48305 34281 ft 501 kts 57°
2026-05-07 18:36 -36.51194 146.51788 34676 ft 501 kts 56°
2026-05-07 18:36 -36.49127 146.55276 35003 ft 501 kts 56°
2026-05-07 18:36 -36.47061 146.58759 35363 ft 501 kts 56°
2026-05-07 18:36 -36.44997 146.62242 35702 ft 501 kts 55°
2026-05-07 18:37 -36.42927 146.65735 36023 ft 502 kts 55°
2026-05-07 18:37 -36.40855 146.69225 36353 ft 502 kts 55°
2026-05-07 18:37 -36.38777 146.72720 36654 ft 503 kts 55°
2026-05-07 18:37 -36.36721 146.76170 36937 ft 504 kts 54°
2026-05-07 18:38 -36.34610 146.79711 37168 ft 505 kts 54°
2026-05-07 18:38 -36.30460 146.86676 37243 ft 506 kts 54°
2026-05-07 18:39 -36.26258 146.93710 37227 ft 508 kts 54°
2026-05-07 18:39 -36.22034 147.00749 37211 ft 508 kts 53°
2026-05-07 18:40 -36.17818 147.07757 37232 ft 507 kts 53°
2026-05-07 18:40 -36.13597 147.14757 37252 ft 508 kts 53°
2026-05-07 18:41 -36.09369 147.21763 37234 ft 509 kts 53°
2026-05-07 18:41 -36.05130 147.28792 37218 ft 509 kts 52°
2026-05-07 18:42 -36.00914 147.35757 37230 ft 509 kts 52°
2026-05-07 18:42 -35.96668 147.42760 37261 ft 510 kts 52°
2026-05-07 18:43 -35.92404 147.49783 37246 ft 510 kts 52°
2026-05-07 18:43 -35.88134 147.56779 37242 ft 511 kts 52°
2026-05-07 18:44 -35.83845 147.63783 37243 ft 511 kts 52°
2026-05-07 18:44 -35.79562 147.70785 37226 ft 512 kts 51°
2026-05-07 18:45 -35.75299 147.77744 37238 ft 512 kts 52°
2026-05-07 18:45 -35.70977 147.84776 37243 ft 512 kts 51°
2026-05-07 18:46 -35.66677 147.91753 37252 ft 512 kts 51°
2026-05-07 18:46 -35.62401 147.98683 37244 ft 512 kts 51°
2026-05-07 18:47 -35.58099 148.05646 37249 ft 511 kts 51°
2026-05-07 18:47 -35.53791 148.12599 37252 ft 511 kts 51°
2026-05-07 18:48 -35.49488 148.19542 37212 ft 511 kts 50°
2026-05-07 18:48 -35.45174 148.26481 37239 ft 511 kts 50°
2026-05-07 18:49 -35.40854 148.33415 37239 ft 511 kts 50°
2026-05-07 18:49 -35.36532 148.40334 37202 ft 511 kts 50°
2026-05-07 18:50 -35.32225 148.47221 37203 ft 512 kts 50°
2026-05-07 18:50 -35.27887 148.54149 37220 ft 513 kts 49°
2026-05-07 18:51 -35.23535 148.61077 37202 ft 513 kts 49°
2026-05-07 18:51 -35.19179 148.67999 37187 ft 514 kts 49°
2026-05-07 18:52 -35.14799 148.74949 37181 ft 516 kts 49°
2026-05-07 18:52 -35.10402 148.81900 37192 ft 517 kts 49°
2026-05-07 18:53 -35.06000 148.88859 37172 ft 519 kts 49°
2026-05-07 18:53 -35.01599 148.95793 37183 ft 520 kts 48°
2026-05-07 18:54 -34.97155 149.02773 37200 ft 521 kts 48°
2026-05-07 18:54 -34.92707 149.09763 37213 ft 522 kts 49°
2026-05-07 18:55 -34.88251 149.16762 37192 ft 523 kts 48°
2026-05-07 18:55 -34.86010 149.20274 37013 ft 524 kts 48°
2026-05-07 18:55 -34.83771 149.23775 36757 ft 524 kts 48°
2026-05-07 18:55 -34.81532 149.27272 36498 ft 524 kts 48°
2026-05-07 18:56 -34.79288 149.30767 36242 ft 525 kts 48°
2026-05-07 18:56 -34.77029 149.34273 36002 ft 525 kts 48°
2026-05-07 18:56 -34.74788 149.37781 35697 ft 526 kts 50°
2026-05-07 18:56 -34.72820 149.41561 34831 ft 535 kts 59°
2026-05-07 18:57 -34.71082 149.45532 33763 ft 542 kts 60°
2026-05-07 18:57 -34.69300 149.49656 32637 ft 546 kts 60°
2026-05-07 18:57 -34.67539 149.53756 31475 ft 550 kts 61°
2026-05-07 18:57 -34.65798 149.57803 30870 ft 542 kts 61°
2026-05-07 18:58 -34.64056 149.61837 30128 ft 538 kts 61°
2026-05-07 18:58 -34.62308 149.65850 29332 ft 534 kts 61°
2026-05-07 18:58 -34.60571 149.69802 28643 ft 527 kts 60°
2026-05-07 18:58 -34.58845 149.73708 27905 ft 522 kts 61°
2026-05-07 18:59 -34.57136 149.77571 27211 ft 517 kts 61°
2026-05-07 18:59 -34.55444 149.81398 26513 ft 512 kts 62°
2026-05-07 18:59 -34.53770 149.85194 25818 ft 508 kts 62°
2026-05-07 18:59 -34.52117 149.88944 25280 ft 501 kts 62°
2026-05-07 19:00 -34.50476 149.92667 24547 ft 500 kts 62°
2026-05-07 19:00 -34.48847 149.96359 23946 ft 494 kts 63°
2026-05-07 19:00 -34.47234 150.00006 23350 ft 487 kts 63°
2026-05-07 19:00 -34.45636 150.03618 22700 ft 482 kts 63°
2026-05-07 19:01 -34.44057 150.07182 22078 ft 477 kts 63°
2026-05-07 19:01 -34.42490 150.10706 21506 ft 472 kts 63°
2026-05-07 19:01 -34.40939 150.14191 20918 ft 469 kts 63°
2026-05-07 19:01 -34.39401 150.17649 20402 ft 464 kts 63°
2026-05-07 19:02 -34.37870 150.21091 19787 ft 463 kts 63°
2026-05-07 19:02 -34.36373 150.24448 19388 ft 456 kts 63°
2026-05-07 19:02 -34.34869 150.27816 18807 ft 450 kts 63°
2026-05-07 19:02 -34.33393 150.31122 17793 ft 442 kts 63°
2026-05-07 19:03 -34.31944 150.34365 17205 ft 436 kts 63°
2026-05-07 19:03 -34.30503 150.37584 16586 ft 433 kts 63°
2026-05-07 19:03 -34.29071 150.40785 15958 ft 431 kts 63°
2026-05-07 19:03 -34.27648 150.43961 15346 ft 428 kts 63°
2026-05-07 19:04 -34.26238 150.47121 14761 ft 425 kts 63°
2026-05-07 19:04 -34.24842 150.50253 14195 ft 421 kts 64°
2026-05-07 19:04 -34.23452 150.53366 13538 ft 419 kts 63°
2026-05-07 19:04 -34.22076 150.56441 13000 ft 412 kts 63°
2026-05-07 19:05 -34.20715 150.59479 12443 ft 407 kts 63°
2026-05-07 19:05 -34.19380 150.62450 11808 ft 399 kts 63°
2026-05-07 19:05 -34.18061 150.65379 11076 ft 392 kts 63°
2026-05-07 19:05 -34.16778 150.68224 10558 ft 380 kts 63°
2026-05-07 19:06 -34.15555 150.70936 10413 ft 357 kts 63°
2026-05-07 19:06 -34.13293 150.75945 9902 ft 329 kts 63°
2026-05-07 19:06 -34.12214 150.78336 9698 ft 323 kts 64°
2026-05-07 19:07 -34.11140 150.80715 9329 ft 321 kts 64°
2026-05-07 19:07 -34.10080 150.83067 8931 ft 317 kts 64°
2026-05-07 19:07 -34.09031 150.85401 8637 ft 315 kts 64°
2026-05-07 19:07 -34.07993 150.87714 8326 ft 312 kts 64°
2026-05-07 19:08 -34.06968 150.90002 8052 ft 308 kts 64°
2026-05-07 19:08 -34.05944 150.92278 7748 ft 310 kts 64°
2026-05-07 19:08 -34.04929 150.94526 7438 ft 308 kts 65°
2026-05-07 19:08 -34.04001 150.96822 7136 ft 301 kts 76°
2026-05-07 19:09 -34.03671 150.99255 6848 ft 289 kts 96°
2026-05-07 19:09 -34.03990 151.01584 6566 ft 277 kts 115°
2026-05-07 19:09 -34.04843 151.03605 6278 ft 265 kts 131°
2026-05-07 19:09 -34.06052 151.05238 6027 ft 261 kts 140°
2026-05-07 19:10 -34.07346 151.06751 5759 ft 256 kts 148°
2026-05-07 19:10 -34.08842 151.07816 5505 ft 245 kts 162°
2026-05-07 19:10 -34.10454 151.08372 5260 ft 238 kts 172°
2026-05-07 19:10 -34.12058 151.08783 5009 ft 234 kts 172°
2026-05-07 19:11 -34.13642 151.09191 4748 ft 232 kts 172°
2026-05-07 19:11 -34.15206 151.09594 4487 ft 228 kts 171°
2026-05-07 19:11 -34.16754 151.09996 4223 ft 226 kts 171°
2026-05-07 19:11 -34.18279 151.10395 3955 ft 223 kts 171°
2026-05-07 19:12 -34.19780 151.10787 3693 ft 219 kts 172°
2026-05-07 19:12 -34.21253 151.11167 3444 ft 215 kts 172°
2026-05-07 19:12 -34.22700 151.11535 3186 ft 211 kts 171°
2026-05-07 19:12 -34.24014 151.12314 2923 ft 216 kts 141°
2026-05-07 19:13 -34.24754 151.13902 2669 ft 224 kts 106°
2026-05-07 19:13 -34.24630 151.15788 2414 ft 230 kts 72°
2026-05-07 19:13 -34.23869 151.17481 2155 ft 229 kts 52°
2026-05-07 19:13 -34.22811 151.18892 1991 ft 225 kts 43°
2026-05-07 19:14 -34.21658 151.20193 1980 ft 227 kts 41°
2026-05-07 19:14 -34.20484 151.21482 1980 ft 228 kts 41°
2026-05-07 19:14 -34.19299 151.22771 1981 ft 230 kts 40°
2026-05-07 19:14 -34.17996 151.23841 1974 ft 226 kts 19°
2026-05-07 19:15 -34.17007 151.24201 1978 ft 223 kts
2026-05-07 19:15 -34.15497 151.24177 1978 ft 213 kts 341°
2026-05-07 19:15 -34.14070 151.23810 1976 ft 206 kts 340°
2026-05-07 19:15 -34.12699 151.23453 1981 ft 195 kts 339°
2026-05-07 19:16 -34.11437 151.23127 1999 ft 177 kts 338°
2026-05-07 19:16 -34.10251 151.22813 1970 ft 177 kts 337°
2026-05-07 19:16 -34.09033 151.22492 1992 ft 179 kts 338°
2026-05-07 19:16 -34.07802 151.22171 1991 ft 181 kts 338°
2026-05-07 19:17 -34.06575 151.21852 1907 ft 181 kts 338°
2026-05-07 19:17 -34.05358 151.21537 1721 ft 175 kts 338°
2026-05-07 19:17 -34.04223 151.21247 1490 ft 155 kts 337°
2026-05-07 19:17 -34.03216 151.20987 1293 ft 142 kts 336°
2026-05-07 19:18 -34.02266 151.20737 1110 ft 138 kts 337°
2026-05-07 19:18 -34.01336 151.20492 915 ft 136 kts 338°
2026-05-07 19:18 -34.00430 151.20256 733 ft 132 kts 341°
2026-05-07 19:18 -33.99547 151.20026 561 ft 129 kts 344°
2026-05-07 19:19 -33.98681 151.19800 384 ft 126 kts 342°
2026-05-07 19:19 -33.97827 151.19580 231 ft 125 kts 343°
2026-05-07 19:19 -33.96985 151.19358 48 ft 123 kts 342°
2026-05-07 19:19 -33.96240 151.19156 27 ft 91 kts 347°
2026-05-07 19:20 -33.95792 151.19039 27 ft 41 kts 349°
2026-05-07 19:20 -33.95580 151.18985 25 ft 22 kts 347°
2026-05-07 19:20 -33.95443 151.18943 25 ft 20 kts 345°
2026-05-07 19:20 -33.95315 151.18868 25 ft 21 kts 323°
2026-05-07 19:21 -33.95231 151.18786 28 ft 13 kts 321°
2026-05-07 19:21 -33.95164 151.18714 29 ft 14 kts 318°
2026-05-07 19:21 -33.95131 151.18678 30 ft 0 kts 317°
2026-05-07 19:21 -33.95122 151.18669 30 ft 5 kts 317°
2026-05-07 19:22 -33.95089 151.18625 30 ft 9 kts 298°
2026-05-07 19:22 -33.95088 151.18559 30 ft 2 kts 265°
2026-05-07 19:22 -33.95078 151.18523 30 ft 8 kts 307°
2026-05-07 19:22 -33.95038 151.18460 30 ft 11 kts 287°
2026-05-07 19:23 -33.95055 151.18352 30 ft 15 kts 258°
2026-05-07 19:23 -33.95078 151.18224 30 ft 16 kts 258°
2026-05-07 19:23 -33.95102 151.18086 31 ft 16 kts 265°
2026-05-07 19:23 -33.95018 151.18010 30 ft 18 kts 349°
2026-05-07 19:24 -33.94881 151.17974 30 ft 19 kts 349°
2026-05-07 19:24 -33.94741 151.17939 30 ft 19 kts 347°
2026-05-07 19:24 -33.94610 151.17903 30 ft 19 kts 347°
2026-05-07 19:24 -33.94487 151.17886 30 ft 17 kts 18°
2026-05-07 19:25 -33.94368 151.17900 30 ft 19 kts 346°
2026-05-07 19:25 -33.94248 151.17868 30 ft 16 kts 347°
2026-05-07 19:25 -33.94146 151.17841 30 ft 15 kts 347°
2026-05-07 19:25 -33.94111 151.17832 29 ft 5 kts 347°
2026-05-07 19:26 -33.94056 151.17817 29 ft 11 kts 347°
2026-05-07 19:26 -33.93970 151.17795 29 ft 14 kts 348°
2026-05-07 19:26 -33.93874 151.17771 30 ft 14 kts 348°
2026-05-07 19:26 -33.93783 151.17771 30 ft 14 kts 17°
2026-05-07 19:27 -33.93711 151.17795 30 ft 8 kts 13°
2026-05-07 19:27 -33.93698 151.17798 29 ft 3 kts 12°
2026-05-07 19:27 -33.93666 151.17807 30 ft 7 kts 12°
2026-05-07 19:27 -33.93615 151.17820 29 ft 6 kts 12°
2026-05-07 19:28 -33.93577 151.17825 30 ft 6 kts 345°
2026-05-07 19:28 -33.93567 151.17787 30 ft 5 kts 277°
2026-05-07 19:28 -33.93565 151.17769 30 ft 1 kts 281°
2026-05-07 19:28 -33.93563 151.17760 30 ft 1 kts 280°
2026-05-07 19:29 -33.93563 151.17759 30 ft 0 kts 280°